Location: Wingville
(42.9917°N, 90.4915°W)
Time: 04:08:26
(UTC+00:00)

UWE-3 - Pass Details

Date: 08 July 2022
Orbit: 583 x 677 km, 97.7° (Epoch: 07 August)

Event Time Altitude Azimuth Distance (km) Brightness Sun altitude
Rises 09:29:14 0° 12° (NNE) 2,933 ? -9.7°
Reaches altitude 10° 09:31:24 10° 12° (NNE) 2,035 ? -9.5°
Maximum altitude 09:35:52 90° 309° (NW) 657 ? -8.9°
Drops below altitude 10° 09:40:24 10° 194° (SSW) 2,073 ? -8.2°
Enters shadow 09:41:29 - 194° (SSW) 2,514 ? -8.1°
